SAUDISAT 5A

Last updated on Sun Jul 06 2025 00:02:29 GMT+0000 (Coordinated Universal Time)

1 43831U 18102A 25186.61623127 .00004023 00000+0 17238-3 0 9993 2 43831 97.3571 249.9651 0009053 278.8879 81.1333 15.23297958362837
UTC large
Height (km)
Speed (km/s)
/
Latitude / Longitude
Inclination (degrees)
Orbital Period (minutes)
Azimuth
Elevation
Range (km)
Doppler Factor

Next 0 passes for location: London (51.5072 / 0.1276)

Sorry there are no passes over London.